This is the latest recevied weather packets stored in our database for station/object IU5GBO-13. If no packets are shown the sender has not sent any weather packets the latest 10 day(s).
| Time | Temp. | Humidity | Pressure | Rain* | Wind** | Luminosity | Snow |
|---|---|---|---|---|---|---|---|
| 1777871177 | 13.33° C | 76% | 1020 hPa | - | - | - | - |
| 1777870577 | 13.33° C | 76% | 1019.9 hPa | - | - | - | - |
| 1777869977 | 13.33° C | 77% | 1019.9 hPa | - | - | - | - |
| 1777869377 | 12.78° C | 77% | 1019.9 hPa | - | - | - | - |
| 1777868777 | 13.33° C | 77% | 1019.9 hPa | - | - | - | - |
| 1777868177 | 12.78° C | 77% | 1019.7 hPa | - | - | - | - |
| 1777867577 | 12.78° C | 77% | 1019.8 hPa | - | - | - | - |
| 1777866977 | 12.78° C | 77% | 1019.7 hPa | - | - | - | - |
| 1777865777 | 12.78° C | 77% | 1019.7 hPa | - | - | - | - |
| 1777864577 | 12.22° C | 77% | 1019.9 hPa | - | - | - | - |
| 1777847777 | 14.44° C | 76% | 1020.4 hPa | - | - | - | - |
| 1777847177 | 14.44° C | 75% | 1020.5 hPa | - | - | - | - |
| 1777846577 | 14.44° C | 74% | 1020.7 hPa | - | - | - | - |
| 1777845977 | 14.44° C | 76% | 1020.5 hPa | - | - | - | - |
| 1777845377 | 14.44° C | 75% | 1020.6 hPa | - | - | - | - |
| 1777844176 | 15° C | 74% | 1020.5 hPa | - | - | - | - |
| 1777843577 | 15° C | 73% | 1020.6 hPa | - | - | - | - |
| 1777842377 | 15° C | 73% | 1020.7 hPa | - | - | - | - |
| 1777841776 | 15° C | 73% | 1020.6 hPa | - | - | - | - |
| 1777841177 | 15° C | 74% | 1020.7 hPa | - | - | - | - |
| 1777840577 | 15° C | 73% | 1020.6 hPa | - | - | - | - |
| 1777839977 | 14.44° C | 74% | 1020.5 hPa | - | - | - | - |
| 1777839377 | 15° C | 71% | 1020.4 hPa | - | - | - | - |
| 1777838177 | 15.56° C | 71% | 1020.4 hPa | - | - | - | - |
| 1777836977 | 16.11° C | 69% | 1020.3 hPa | - | - | - | - |
* Rain since midnight (hover to see other rain measurements)
** Current wind speed in m/s (hover to see current wind gust speed)